DW3793 Weather Reports


Display with metric or nautical units.
time (UTC)temp
F
wind
direction
speed
MPH
gust
MPH
rain 1hr
in
rain 24hr
in
rain mn
in
humidity
%
barometer
mb
20260902004503 81 334 7.0 13.0 0.00 0.00 0.00 29 1007.1
20260902003001 81 292 4.0 19.0 0.00 0.00 0.00 28 1007.3
20260902001601 81 34 5.0 16.0 0.00 0.00 0.00 28 1007.6
20260902000055 82 305 7.0 20.0 0.00 0.00 0.00 27 1007.7
20260901234553 82 273 7.0 14.0 0.00 0.00 0.00 28 1007.8
20260901233059 82 298 4.0 12.0 0.00 0.00 0.00 30 1008.0
20260901231555 81 325 7.0 14.0 0.00 0.00 0.00 31 1008.1
20260901230044 79 294 4.0 15.0 0.00 0.00 0.00 32 1008.3
20260901224544 80 340 6.0 13.0 0.00 0.00 0.00 31 1008.4
20260901223049 78 317 3.0 10.0 0.00 0.00 0.00 33 1008.7
20260901221537 78 360 5.0 13.0 0.00 0.00 0.00 33 1008.9
20260901220033 78 331 5.0 12.0 0.00 0.00 0.00 34 1008.9
20260901214531 78 9 5.0 12.0 0.00 0.00 0.00 37 1009.1
20260901213034 76 71 2.0 5.0 0.00 0.00 0.00 44 1009.2
20260901211529 74 46 5.0 12.0 0.00 0.00 0.00 45 1009.3
20260901210035 75 9 2.0 9.0 0.00 0.00 0.00 44 1009.6
20260901204527 75 261 0.0 9.0 0.00 0.00 0.00 43 1009.1
20260901203021 75 290 4.0 11.0 0.00 0.00 0.00 41 1009.8
20260901201520 74 294 5.0 10.0 0.00 0.00 0.00 44 1009.9
20260901200037 74 325 5.0 10.0 0.00 0.00 0.00 44 1009.8
20260901194515 73 263 6.0 16.0 0.00 0.00 0.00 45 1009.7
20260901193014 73 313 4.0 10.0 0.00 0.00 0.00 45 1010.1
20260901191520 72 63 4.0 16.0 0.00 0.00 0.00 47 1010.7
20260901190047 72 281 9.0 15.0 0.00 0.00 0.00 46 1010.9
20260901184542 72 324 6.0 14.0 0.00 0.00 0.00 49 1011.2
20260901183013 73 279 8.0 18.0 0.00 0.00 0.00 44 1011.5
20260901181510 74 292 12.0 30.0 0.00 0.00 0.00 40 1011.7
20260901180018 70 333 9.0 18.0 0.00 0.00 0.00 44 1011.4
20260901174504 68 63 1.0 4.0 0.00 0.00 0.00 41 1010.8
20260901173003 70 161 5.0 8.0 0.00 0.00 0.00 36 1010.5
20260901171502 72 130 4.0 11.0 0.00 0.00 0.00 33 1010.4
20260901170156 75 294 3.0 14.0 0.00 0.00 0.00 38 1009.9
20260901164554 74 26 3.0 10.0 0.00 0.00 0.00 40 1009.9
20260901163049 69 51 5.0 15.0 0.00 0.00 0.00 44 1010.0
20260901161602 63 215 4.0 6.0 0.00 0.00 0.00 40 1010.4
20260901160040 62 46 1.0 4.0 0.00 0.00 0.00 43 1010.7
20260901154539 61 163 1.0 3.0 0.00 0.00 0.00 43 1011.2
20260901153058 61 100 2.0 4.0 0.00 0.00 0.00 44 1011.3
20260901151536 60 113 0.0 1.0 0.00 0.00 0.00 44 1011.1
20260901150034 58 281 0.0 1.0 0.00 0.00 0.00 52 1010.7
20260901144501 57 281 0.0 1.0 0.00 0.00 0.00 51 1010.4
20260901143100 55 281 0.0 1.0 0.00 0.00 0.00 53 1010.0
20260901141557 54 317 0.0 2.0 0.00 0.00 0.00 55 1009.9
20260901140056 54 311 0.0 0.0 0.00 0.00 0.00 52 1009.7
20260901134555 54 312 0.0 1.0 0.00 0.00 0.00 51 1009.6
20260901133054 54 312 0.0 1.0 0.00 0.00 0.00 50 1009.6
20260901131602 54 312 0.0 1.0 0.00 0.00 0.00 49 1009.6
20260901130059 54 302 1.0 2.0 0.00 0.00 0.00 51 1009.6
20260901124549 55 252 0.0 3.0 0.00 0.00 0.00 46 1009.6
20260901123050 55 298 1.0 3.0 0.00 0.00 0.00 46 1009.4
20260901121546 55 323 1.0 3.0 0.00 0.00 0.00 47 1009.7
20260901120045 54 304 0.0 2.0 0.00 0.00 0.00 48 1010.0
20260901114544 54 326 0.0 2.0 0.00 0.00 0.00 48 1010.0
20260901113041 55 321 0.0 1.0 0.00 0.00 0.00 47 1009.7
20260901111536 56 275 1.0 4.0 0.00 0.00 0.00 44 1009.6
20260901110034 55 295 0.0 2.0 0.00 0.00 0.00 46 1009.8
20260901104535 56 259 2.0 3.0 0.00 0.00 0.00 45 1009.9
20260901103032 55 296 1.0 2.0 0.00 0.00 0.00 46 1009.9
20260901101528 56 319 1.0 3.0 0.00 0.00 0.00 46 1010.1
20260901100027 56 315 0.0 2.0 0.00 0.00 0.00 45 1010.0
20260901094524 57 315 0.0 2.0 0.00 0.00 0.00 43 1010.1
20260901093022 57 325 0.0 2.0 0.00 0.00 0.00 45 1010.1
20260901091553 57 320 0.0 1.0 0.00 0.00 0.00 43 1010.2
20260901090057 57 319 0.0 2.0 0.00 0.00 0.00 44 1010.1
20260901084604 58 325 0.0 3.0 0.00 0.00 0.00 42 1010.0
20260901083049 59 263 0.0 2.0 0.00 0.00 0.00 41 1010.1
20260901081541 60 299 0.0 2.0 0.00 0.00 0.00 39 1010.1
20260901080039 61 300 0.0 3.0 0.00 0.00 0.00 37 1010.2
20260901074536 62 293 1.0 2.0 0.00 0.00 0.00 36 1010.2
20260901073038 64 319 0.0 4.0 0.00 0.00 0.00 34 1010.1
20260901071535 64 292 0.0 6.0 0.00 0.00 0.00 33 1010.1
20260901070032 64 310 1.0 4.0 0.00 0.00 0.00 33 1010.1
20260901064536 64 313 1.0 3.0 0.00 0.00 0.00 34 1010.2
20260901063032 63 296 0.0 3.0 0.00 0.00 0.00 35 1010.4
20260901061528 64 272 0.0 3.0 0.00 0.00 0.00 34 1010.3
20260901060031 65 286 1.0 7.0 0.00 0.00 0.00 33 1010.4
20260901054556 65 329 0.0 3.0 0.00 0.00 0.00 33 1010.4
20260901053120 66 317 0.0 4.0 0.00 0.00 0.00 32 1010.4
20260901051554 66 301 1.0 3.0 0.00 0.00 0.00 32 1010.3
20260901050129 67 298 0.0 2.0 0.00 0.00 0.00 31 1010.4
20260901044555 69 299 1.0 4.0 0.00 0.00 0.00 29 1010.3
20260901043053 68 275 2.0 5.0 0.00 0.00 0.00 30 1010.3
20260901041548 68 294 3.0 5.0 0.00 0.00 0.00 30 1010.4
20260901040050 69 292 2.0 7.0 0.00 0.00 0.00 29 1010.4
20260901034546 70 322 2.0 8.0 0.00 0.00 0.00 28 1010.5
20260901033053 71 254 1.0 4.0 0.00 0.00 0.00 28 1010.4
20260901031553 70 294 2.0 5.0 0.00 0.00 0.00 28 1010.4
20260901030042 70 302 3.0 7.0 0.00 0.00 0.00 30 1010.2
20260901024542 70 287 0.0 3.0 0.00 0.00 0.00 30 1010.2
20260901023043 71 294 0.0 1.0 0.00 0.00 0.00 31 1010.2
20260901021510 73 293 0.0 2.0 0.00 0.00 0.00 30 1010.1
20260901020009 77 296 0.0 1.0 0.00 0.00 0.00 26 1010.2
20260901014609 80 296 0.0 0.0 0.00 0.00 0.00 21 1010.1
20260901013047 82 42 0.0 6.0 0.00 0.00 0.00 19 1010.3
20260901011539 82 324 2.0 10.0 0.00 0.00 0.00 18 1010.2
20260901010038 83 327 3.0 10.0 0.00 0.00 0.00 17 1010.3